sat.trackr.live / text

‹ back to catalog

STARLINK-3578

NORAD 51868 · 2022-022S

PAYLOAD ACTIVE UNKNOWN

§ Identity

Operator
Country
US
Launch date
2022-03-03
Launch site
AFETR
Launch vehicle
Mass (kg)
RCS (m²)

Purposes: comms

External: N2YO · Heavens-Above · Gunter

§ Orbital elements

Epoch: 2026-05-24T22:40:51.913920Z

Period
95.44 min
Inclination
53.2150°
Eccentricity
0.0001448
Mean motion
15.08839810 rev/d
Perigee alt
538.7 km
Apogee alt
540.7 km
Semi-major
6,917.9 km
B*
6.4599e-5
RAAN
26.7987°
Arg perigee
86.0105°
Mean anomaly
274.1052°
Rev number
23,462

§ Raw data

STARLINK-35781 51868U 22022S   26144.94504530  .00000740  00000+0  64599-4 0  99902 51868  53.2150  26.7987 0001448  86.0105 274.1052 15.08839810234623

JSON: /api/v1/satellites/51868 · /tle

For live sub-satellite position, see the globe view (requires WebGL).

§ Visibility from observer

Set your observer location to see the next 7 days of passes ≥ 10°. The values pass through the URL so the page stays shareable.

No JS? Fill the form by hand. The geolocation button needs JavaScript.